Regional Weather Roundup
Issued by NWS

Home | Current Version | Previous Version | Text Only | Print | Product List | Glossary Off
Versions: 1 2 3 4 5 6 7 8 9 10 11 12 13 14 15 16 17 18 19 20 21 22 23 24 25 26 27 28 29 30 31 32 33 34 35 36 37 38 39 40 41 42 43 44 45 46 47 48 49 50

340
ASUS43 KMKX 271200
RWRWI

WISCONSIN REGIONAL WEATHER ROUNDUP
NATIONAL WEATHER SERVICE MILWAUKEE/SULLIVAN WI
700 AM CDT SAT AUG 27 2016

NOTE: "FAIR" INDICATES FEW OR NO CLOUDS BELOW 12,000 FEET WITH NO
SIGNIFICANT WEATHER AND/OR OBSTRUCTIONS TO VISIBILITY.

WIZ001-002-006>008-014>016-023>028-271300-
NORTHWEST WISCONSIN

CITY           SKY/WX    TMP DP  RH WIND       PRES   REMARKS
SUPERIOR ARPT  CLOUDY    55  54  98 CALM      30.10R
ASHLAND        CLOUDY    51  50  96 S3        30.13R
6HR MIN TEMP:  51; 6HR MAX TEMP:  55;

HAYWARD        CLOUDY    54  52  93 NE3       30.12S
6HR MIN TEMP:  53; 6HR MAX TEMP:  56;

SIREN          CLOUDY    58  55  90 E5        30.09S
CUMBERLAND     CLOUDY    57  54  88 E3        30.10F
RICE LAKE      CLOUDY    58  55  91 E3        30.12S
CHETEK         NOT AVBL
LADYSMITH      CLOUDY    57  54  89 E3        30.14R
EAU CLAIRE     NOT AVBL
MENOMONIE      CLOUDY    60  59  95 E6        30.08F
6HR MIN TEMP:  60; 6HR MAX TEMP:  61;

NEW RICHMOND   CLOUDY    59  58  96 E6        30.07F
OSCEOLA        CLOUDY    60  60 100 CALM      30.11R
$$

WIZ003>005-009-010-017-018-271300-
NORTH CENTRAL WISCONSIN

CITY           SKY/WX    TMP DP  RH WIND       PRES   REMARKS
MANITOWISH WTR NOT AVBL
ARBOR VITAE    CLOUDY    58  54  86 SE5       30.15R
WOODRUFF       CLOUDY    58  54  86 SE5       30.15R
RHINELANDER    CLOUDY    57  56  96 SE3       30.15F
6HR MIN TEMP:  56; 6HR MAX TEMP:  57; 6HR PCP: TRACE;

EAGLE RIVER    CLOUDY    53  53 100 CALM      30.16R
LAND O LAKES   CLOUDY    52  52 100 CALM      30.17S
PHILLIPS       CLOUDY    54  53  96 CALM      30.13S
6HR MIN TEMP:  53; 6HR MAX TEMP:  55;

TOMAHAWK       MOCLDY    55  53  94 CALM      30.15S
MEDFORD        CLOUDY    56  56 100 E5        30.12S
MERRILL        CLOUDY    57  57 100 CALM      30.14S
6HR MIN TEMP:  57; 6HR MAX TEMP:  58; 6HR PCP:  0.01;

$$

WIZ029-030-035-036-043>047-271300-
CENTRAL WISCONSIN

CITY           SKY/WX    TMP DP  RH WIND       PRES   REMARKS
WAUSAU         CLOUDY    59  57  93 E3        30.12S
6HR MIN TEMP:  58; 6HR MAX TEMP:  60; 6HR PCP:  0.09;

MOSINEE        PTCLDY    57  57 100 E5        30.14S
MARSHFIELD     CLOUDY    59  56  89 NE6       30.11S
6HR MIN TEMP:  59; 6HR MAX TEMP:  62; 6HR PCP: TRACE;

STEVENS POINT  DRIZZLE   58  57  99 E3        30.13S
WAUPACA        MOCLDY    62  61  98 CALM      30.13S
WAUTOMA        LGT RAIN  60  59  96 NE5       30.14R
6HR MIN TEMP:  60; 6HR MAX TEMP:  63; 6HR PCP: TRACE;

WISC RAPIDS    CLOUDY    60  58  92 E7        30.12F
6HR MIN TEMP:  59; 6HR MAX TEMP:  62; 6HR PCP:  0.17;

CAMP DOUGLAS   NOT AVBL
$$

WIZ011>013-019>022-031-037>040-048>050-271300-
NORTHEAST WISCONSIN

CITY           SKY/WX    TMP DP  RH WIND       PRES   REMARKS
ANTIGO         CLOUDY    57  57  99 SE6       30.15S
SHAWANO        CLOUDY    63  60  91 CALM      30.14S
OCONTO         NOT AVBL
STURGEON BAY   CLOUDY    63  61  93 CALM      30.15F
6HR MIN TEMP:  62; 6HR MAX TEMP:  64; 6HR PCP: TRACE;

GREEN BAY      CLOUDY    62  62 100 E6        30.13S
6HR MIN TEMP:  61; 6HR MAX TEMP:  63; 6HR PCP:  0.03;

MANITOWOC      NOT AVBL
APPLETON       LGT RAIN  63  61  94 E6        30.12R
CLINTONVILLE   CLOUDY    61  59  94 CALM      30.14R
OSHKOSH        HVY RAIN  62  60  93 SE10      30.13R FOG
6HR MIN TEMP:  62; 6HR MAX TEMP:  66; 6HR PCP:  0.38;

$$

WIZ032>034-041-042-053>061-271300-
SOUTHWEST WISCONSIN

CITY           SKY/WX    TMP DP  RH WIND       PRES   REMARKS
LA CROSSE      CLOUDY    64  61  90 CALM      30.08R
6HR MIN TEMP:  63; 6HR MAX TEMP:  65; 6HR PCP: TRACE;

SPARTA         CLOUDY    60  59  97 E5        30.10R
VIROQUA        CLOUDY    60  60 100 E8G16     30.08R
6HR MIN TEMP:  59; 6HR MAX TEMP:  61; 6HR PCP:  0.14;

BOSCOBEL       LGT RAIN  64  62  93 NE7       30.06S
6HR MIN TEMP:  63; 6HR MAX TEMP:  65; 6HR PCP:  0.46;

PRAIRIE DU CHI CLOUDY    62  61  96 E6        30.04S
PLATTEVILLE    CLOUDY    63  63 100 E12G18    30.05S
$$

WIZ056-057-062-063-064-067-068-271300-
SOUTH CENTRAL WISCONSIN

CITY           SKY/WX    TMP DP  RH WIND       PRES   REMARKS
REEDSBURG      NOT AVBL
BARABOO/DELLS  LGT RAIN  61  59  94 E7        30.10S
LONE ROCK      NOT AVBL
MINERAL POINT  LGT RAIN  63  63 100 E12       30.07S
MADISON        LGT RAIN  61  60  97 NE8       30.09R
6HR MIN TEMP:  61; 6HR MAX TEMP:  66; 6HR PCP:  0.94;

MIDDLETON      CLOUDY    62  62 100 NE7       30.10R
WATERTOWN      CLOUDY    61  61 100 NE9       30.09F
MONROE         CLOUDY    63  61  94 NE9       30.07R FOG
JANESVILLE     CLOUDY    64  64 100 NE10      30.07R
$$

WIZ051-052-058>065-066-070>072-271300-
SOUTHEAST WISCONSIN

CITY           SKY/WX    TMP DP  RH WIND       PRES   REMARKS
MILWAUKEE      RAIN      65  62  90 N12       30.11R
6HR MIN TEMP:  64; 6HR MAX TEMP:  69; 6HR PCP:  0.07;

WAUKESHA       DRIZZLE   61  61 100 NE8       30.12R
MILWAUKEE/TIMM CLOUDY    61  59  94 NE7       30.12R
RACINE         LGT RAIN  68  63  84 E7        30.12R
6HR MIN TEMP:  67; 6HR MAX TEMP:  70; 6HR PCP:  0.02;

BURLINGTON     LGT RAIN  63  62  95 E5        30.09S
KENOSHA        LGT RAIN  68  66  93 E6        30.11R
6HR MIN TEMP:  66; 6HR MAX TEMP:  68; 6HR PCP:  0.08;

FOND DU LAC    HVY RAIN  62  60  93 E5        30.14R
6HR MIN TEMP:  62; 6HR MAX TEMP:  66; 6HR PCP:  0.56;

SHEBOYGAN      RAIN      61  60  97 E3        30.14R FOG
6HR MIN TEMP:  61; 6HR MAX TEMP:  63; 6HR PCP:  0.33;

WEST BEND      LGT RAIN  59  59 100 E5        30.13R
JUNEAU         LGT RAIN  60  59  97 NE7       30.12S
$$

LSZ147-162-271300-
LAKE SUPERIOR

STATION/POSITION TIME  TEMP    WIND        PRES    WAVE
                       AIR SEA DIR/SP/G            HT/PER
                 (UTC) (F)     (DEG/KT/KT) (MB)    (FT/S)
W MID LAKE BUOY  1050   67 67  180/  8/ 10 1019.5S   1
DEVILS ISLAND    1100   63     190/  4/  5 1019.8R
PORT WING        1100   58     130/  2/  3 1019.6S
SAXON HARBOR     1140   58     180/  5/  7 1019.6R
$$

LMZ867-665-643>646-271300-
LAKE MICHIGAN

STATION/POSITION TIME  TEMP    WIND        PRES    WAVE
                       AIR SEA DIR/SP/G            HT/PER
                 (UTC) (F)     (DEG/KT/KT) (MB)    (FT/S)
CHAMBERS ISLAND  1100   62      CALM  /  1 1020.7F
S GREEN BAY BUOY 1030   67 72   30/ 10/ 12 1019.9
N MID LAKE BUOY  1050   69 70  230/  4/  4 1020.9R   1
NORTHPORT PIER   1100   62     270/  2/  3 1021.0S
SISTER BAY       1107   62        CALM       N/A
KEWAUNEE LAKESHO 1100   63      CALM  /  2 1020.3R
SHEBOYGAN LAKESH 1100   60      30/  5/  5 1019.9F
PORT WASHINGTON  1100   62      30/ 10/ 13 1020.7
ATWATER BUOY     1100   62      50/ 12/ 14   N/A
MILWAUKEE LAKESH 1110   61      30/ 10/ 11   N/A
S MID LAKE BUOY  1050   71 74  100/ 16/ 17 1017.9R   2/ 4
KENOSHA   LAKESH 1100   70      90/  9/ 10 1018.6R
$$

TC  - TEMPERATURE IN CELSIUS
VSB - VISIBILITY IN STATUTE MILES
WCI - WIND CHILL INDEX
HX  - HEAT INDEX





USA.gov is the U.S. government's official web portal to all federal, state and local government web resources and services.